{"data":{"norad_id":67900,"intl_designator":"2026-035X","name":"STARLINK-36361","alt_names":[],"object_type":"PAYLOAD","status":"ACTIVE","operator":null,"country":"US","launch_date":"2026-02-21","launch_site_code":"AFWTR","launch_vehicle":null,"mission":null,"orbit_class":"UNKNOWN","rcs_meters":null,"size_class":null,"mass_kg":null,"dimensions":null,"purposes":["comms"],"wikipedia_slug":null,"has_3d_model":false,"image_url":null,"decayed_at":null,"tle_current":{"epoch":"2026-05-25T02:34:57.736416Z","epoch_age_seconds":58999,"freshness":"FRESH","line1":"1 67900U 26035X   26145.10761269  .00025263  00000+0  78184-3 0  9996","line2":"2 67900  97.2860  78.7003 0001035  61.5745 298.5602 15.33461441 15705","mean_motion":15.33461441,"eccentricity":0.0001035,"inclination_deg":97.286,"raan_deg":78.7003,"arg_perigee_deg":61.5745,"mean_anomaly_deg":298.5602,"bstar":0.00078184,"rev_number":1570,"period_min":93.90519784188,"perigee_km":464.7859422312,"apogee_km":466.20257390162,"semimajor_km":6843.6312580664,"source":"CELESTRAK","updated_at":"2026-05-25T13:38:21.736291Z"}}}